This demonstration page uses our WeatherBlox Daily Observations layout. Learn more.

Left ArrowRight Arrow

39.92423, -83.80882

Hourly Observations for January 6, 2020

Temp ( °F °C ) Dew Point ( °F °C ) Humidity (%) Winds ( mph kmh ) Pressure ( in mb ) Visibility ( mi km ) Precip ( " mm )
12:31 am 00:31 Cloudy 37 3 30 -1 75 75 W 25 41 30.01 1016 10 16.0934 0 0
12:56 am 00:56 Cloudy 37 2.8 30 -1.1 76 76 W 16 26 30.01 1016 10 16.0934 0 0
1:56 am 01:56 Cloudy 37 2.8 30 -1.1 76 76 W 20 31 30.03 1017 10 16.0934 0 0
2:56 am 02:56 Cloudy 36 2.2 29 -1.7 76 76 WNW 15 24 30.06 1018 10 16.0934 0 0
3:56 am 03:56 Cloudy 35 1.7 29 -1.7 78 78 W 22 35 30.09 1019 10 16.0934 0 0
4:56 am 04:56 Cloudy 33 0.6 27 -2.8 78 78 WNW 21 33 30.11 1020 10 16.0934 0 0
5:56 am 05:56 Cloudy 32 0 27 -2.8 82 82 WNW 12 19 30.12 1020 10 16.0934 0 0
6:56 am 06:56 Mostly Cloudy 30 -1.1 28 -2.2 92 92 W 8 13 30.16 1021 10 16.0934 0 0
7:13 am 07:13 Partly Cloudy 30 -1 27 -3 86 86 W 7 11 30.19 1022 10 16.0934 0 0
7:44 am 07:44 Mostly Cloudy 30 -1 27 -3 86 86 WSW 6 9 30.2 1023 10 16.0934 0 0
7:56 am 07:56 Cloudy 30 -1.1 28 -2.2 92 92 WSW 7 11 30.18 1022 10 16.0934 0 0
8:56 am 08:56 Mostly Cloudy 31 -0.6 28 -2.2 89 89 WSW 10 17 30.21 1023 10 16.0934 0 0
9:14 am 09:14 Partly Cloudy 30 -1 28 -2 93 93 WSW 12 19 30.25 1024 10 16.0934 0 0
9:56 am 09:56 Mostly Sunny 33 0.6 28 -2.2 82 82 WSW 13 20 30.23 1024 10 16.0934 0 0
10:56 am 10:56 Sunny 35 1.7 29 -1.7 78 78 W 9 15 30.23 1024 10 16.0934 0 0
11:56 am 11:56 Sunny 37 2.8 29 -1.7 73 73 WSW 12 19 30.22 1024 10 16.0934 0 0
12:56 pm 12:56 Sunny 39 3.9 27 -2.8 62 62 WSW 12 19 30.19 1023 10 16.0934 0 0
1:56 pm 13:56 Sunny 40 4.4 28 -2.2 63 63 W 8 13 30.17 1022 10 16.0934 0 0
2:56 pm 14:56 Sunny 42 5.6 27 -2.8 55 55 WSW 9 15 30.16 1021 10 16.0934 0 0
3:56 pm 15:56 Sunny 43 6.1 26 -3.3 51 51 W 8 13 30.16 1022 10 16.0934 0 0
4:56 pm 16:56 Sunny 42 5.6 27 -2.8 55 55 WSW 7 11 30.16 1021 10 16.0934 0 0
5:56 pm 17:56 Clear 37 2.8 26 -3.3 65 65 WSW 6 9 30.17 1022 10 16.0934 0 0
6:56 pm 18:56 Clear 35 1.7 25 -3.9 67 67 SW 5 7 30.18 1022 10 16.0934 0 0
7:56 pm 19:56 Clear 36 2.2 25 -3.9 64 64 SSW 5 7 30.19 1022 10 16.0934 0 0
8:56 pm 20:56 Clear 34 1.1 27 -2.8 76 76 SW 3 6 30.17 1022 10 16.0934 0 0
9:56 pm 21:56 Clear 30 -1.1 27 -2.8 88 88 Calm 30.16 1021 10 16.0934 0 0
10:56 pm 22:56 Clear 29 -1.7 26 -3.3 89 89 SE 3 6 30.14 1021 10 16.0934 0 0
11:56 pm 23:56 Clear 30 -1.1 27 -2.8 88 88 SSW 5 7 30.12 1020 10 16.0934 0 0

Powered by AerisWeather